Terminal Aerodrome Forecast
Issued by NWS Wakefield, VA

Home | Current Version | Previous Version | Text Only | Print | Product List | Glossary On
Versions: 1 2 3 4 5 6 7 8 9 10 11 12 13 14 15 16 17 18 19 20 21 22 23
000
FTUS41 KAKQ 021100 CCB
TAFSBY
TAF COR
KSBY 021153Z 0212/0312 26005KT 2SM BR OVC002
     FM021400 29008KT 5SM BR OVC007
     FM021530 32013G20KT P6SM BKN050
     FM021800 31011KT P6SM SCT250=

USA.gov is the U.S. government's official web portal to all federal, state and local government web resources and services.